Вернуться в каталог

CZ-4B DEB

АктивенSSO
NORAD 38315·DEBRIS·🇨🇳 China

Запущен Aug 15, 2011 с Taiyuan Satellite Launch Center

Loading…

Ближайшие Пролёты (ближайшие 24 часа)

TLE

УстаревающийSource: Space-Track

Эпоха: Sep 11, 2026, 01:54 UTC

1 38315U 11043E   26254.07961818  .00000167  00000-0  27457-3 0  9990
2 38315  99.8699 189.5539 0216582 125.1277 237.0367 13.52445302640211

Отслеживайте CZ-4B DEB в реальном времени с AllMySat

Download on the App Store